FW9176 Weather Reports


Display with metric or nautical units.
time (UTC)temp
F
wind
direction
speed
MPH
gust
MPH
rain 1hr
in
rain 24hr
in
rain mn
in
humidity
%
barometer
mb
20260509143058 60 307 0.0 8.0 0.00 0.00 0.00 70 1002.2
20260509141606 59 292 1.0 6.0 0.00 0.00 0.00 71 1002.3
20260509140059 58 0 1.0 5.0 0.00 0.00 0.00 73 1002.2
20260509134558 58 0 1.0 4.0 0.00 0.00 0.00 74 1002.2
20260509133050 57 0 0.0 4.0 0.00 0.00 0.00 76 1002.3
20260509131551 56 301 0.0 10.0 0.00 0.00 0.00 76 1002.3
20260509130053 56 255 0.0 4.0 0.00 0.00 0.00 77 1002.3
20260509124551 55 231 1.0 4.0 0.00 0.00 0.00 79 1002.3
20260509123054 54 230 0.0 3.0 0.00 0.00 0.00 82 1002.2
20260509121555 53 188 0.0 1.0 0.00 0.00 0.00 84 1002.1
20260509120054 53 252 0.0 4.0 0.00 0.00 0.00 86 1002.2
20260509114551 52 0 0.0 3.0 0.00 0.00 0.00 86 1002.1
20260509113053 52 0 0.0 2.0 0.00 0.00 0.00 86 1002.0
20260509111552 52 181 0.0 3.0 0.00 0.00 0.00 86 1001.6
20260509110054 52 200 0.0 4.0 0.00 0.00 0.00 86 1001.6
20260509104552 52 0 0.0 5.0 0.00 0.00 0.00 86 1001.6
20260509103056 52 231 0.0 3.0 0.00 0.00 0.00 86 1001.6
20260509101556 52 0 0.0 2.0 0.00 0.00 0.00 85 1001.8
20260509100053 52 0 1.0 3.0 0.00 0.00 0.00 85 1001.9
20260509094552 52 224 0.0 2.0 0.00 0.00 0.00 85 1002.1
20260509093057 52 0 0.0 5.0 0.00 0.00 0.00 85 1002.2
20260509091555 52 0 0.0 3.0 0.00 0.00 0.00 85 1002.4
20260509090055 52 229 0.0 1.0 0.00 0.00 0.00 84 1002.5
20260509084558 53 205 0.0 5.0 0.00 0.00 0.00 84 1002.5
20260509083056 53 0 0.0 2.0 0.00 0.00 0.00 83 1002.5
20260509081556 53 0 0.0 2.0 0.00 0.00 0.00 83 1002.4
20260509080059 53 0 0.0 3.0 0.00 0.00 0.00 82 1002.3
20260509074557 53 0 0.0 2.0 0.00 0.00 0.00 81 1002.7
20260509073052 53 0 0.0 4.0 0.00 0.00 0.00 81 1002.6
20260509071552 54 0 0.0 1.0 0.00 0.00 0.00 80 1003.0
20260509070053 54 0 0.0 1.0 0.00 0.00 0.00 79 1003.0
20260509064554 54 0 0.0 2.0 0.00 0.00 0.00 79 1003.1
20260509063053 55 0 0.0 2.0 0.00 0.00 0.00 78 1003.2
20260509061553 55 0 0.0 1.0 0.00 0.00 0.00 78 1003.3
20260509060055 55 0 0.0 4.0 0.00 0.00 0.00 78 1003.5
20260509054554 55 285 0.0 4.0 0.00 0.00 0.00 78 1003.6
20260509053058 56 0 0.0 4.0 0.00 0.00 0.00 78 1003.7
20260509051559 56 0 0.0 4.0 0.00 0.00 0.00 77 1003.5
20260509050054 56 0 0.0 4.0 0.00 0.00 0.00 76 1003.7
20260509044552 56 0 0.0 3.0 0.00 0.00 0.00 76 1003.6
20260509043050 57 0 0.0 7.0 0.00 0.00 0.00 75 1003.7
20260509041555 57 209 0.0 4.0 0.00 0.00 0.00 74 1003.7
20260509040057 57 126 0.0 3.0 0.00 0.00 0.00 73 1004.0
20260509034552 58 129 0.0 4.0 0.00 0.00 0.00 72 1003.9
20260509033101 58 174 0.0 4.0 0.00 0.00 0.00 71 1003.9
20260509031553 58 0 0.0 5.0 0.00 0.00 0.00 71 1004.0
20260509030054 58 0 0.0 5.0 0.00 0.00 0.00 70 1004.0
20260509024550 58 165 0.0 3.0 0.00 0.00 0.00 69 1004.1
20260509023101 57 151 0.0 3.0 0.00 0.00 0.00 68 1004.1
20260509021552 57 0 0.0 0.0 0.00 0.00 0.00 67 1004.2
20260509020057 58 0 0.0 1.0 0.00 0.00 0.00 66 1004.0
20260509014553 58 0 0.0 0.0 0.00 0.00 0.00 66 1003.9
20260509013055 59 0 0.0 1.0 0.00 0.00 0.00 65 1003.8
20260509011553 60 0 0.0 1.0 0.00 0.00 0.00 64 1003.7
20260509010051 60 0 0.0 0.0 0.00 0.00 0.00 63 1003.7
20260509004559 61 0 0.0 1.0 0.00 0.00 0.00 62 1003.8
20260509003051 62 0 0.0 1.0 0.00 0.00 0.00 61 1003.8
20260509001553 62 94 0.0 1.0 0.00 0.00 0.00 61 1003.8
20260509000055 63 80 0.0 1.0 0.00 0.00 0.00 60 1003.8
20260508234555 63 0 0.0 2.0 0.00 0.00 0.00 60 1004.0
20260508233112 64 60 0.0 2.0 0.00 0.00 0.00 59 1003.9
20260508231556 64 0 0.0 1.0 0.00 0.00 0.00 60 1004.0
20260508230058 64 75 0.0 2.0 0.00 0.00 0.00 61 1004.0
20260508224615 64 80 1.0 2.0 0.00 0.03 0.00 61 1004.1
20260508223052 64 0 0.0 2.0 0.00 0.03 0.00 62 1004.2
20260508221551 63 0 0.0 3.0 0.00 0.03 0.00 62 1004.1
20260508220050 64 0 0.0 2.0 0.00 0.03 0.00 61 1004.2
20260508214551 64 0 0.0 2.0 0.00 0.04 0.00 60 1004.3
20260508213052 63 0 1.0 3.0 0.00 0.04 0.00 60 1004.3
20260508211552 64 0 1.0 3.0 0.00 0.04 0.00 60 1004.3
20260508210057 65 77 0.0 4.0 0.00 0.04 0.00 58 1004.4
20260508204555 66 0 0.0 1.0 0.00 0.04 0.00 51 1004.5
20260508203056 66 0 0.0 3.0 0.00 0.04 0.00 46 1004.6
20260508201555 65 0 0.0 3.0 0.00 0.04 0.00 56 1004.9
20260508200104 65 68 1.0 3.0 0.00 0.04 0.00 56 1005.2
20260508194558 67 30 0.0 4.0 0.00 0.04 0.00 44 1005.4
20260508193104 66 207 1.0 5.0 0.00 0.04 0.00 47 1005.6
20260508191556 65 114 0.0 2.0 0.00 0.04 0.00 50 1005.8
20260508190052 65 208 0.0 4.0 0.00 0.04 0.00 48 1006.1
20260508184556 65 81 0.0 1.0 0.00 0.04 0.00 52 1006.1
20260508183051 65 0 0.0 2.0 0.00 0.04 0.00 52 1006.5
20260508181556 65 0 0.0 4.0 0.00 0.04 0.00 51 1006.7
20260508180057 65 123 1.0 7.0 0.00 0.04 0.00 53 1006.7
20260508174611 65 131 0.0 3.0 0.00 0.04 0.00 56 1006.9
20260508173056 66 94 1.0 4.0 0.00 0.04 0.00 57 1007.2
20260508171552 65 128 0.0 2.0 0.00 0.04 0.00 60 1007.5
20260508170056 63 80 0.0 3.0 0.00 0.04 0.00 61 1007.8
20260508164555 62 0 0.0 2.0 0.00 0.04 0.00 63 1008.0
20260508163058 62 150 0.0 3.0 0.00 0.04 0.00 62 1008.2
20260508161553 62 79 0.0 3.0 0.00 0.04 0.00 60 1008.4
20260508160054 61 0 0.0 3.0 0.00 0.04 0.00 59 1008.5
20260508154554 61 0 0.0 2.0 0.00 0.04 0.00 61 1008.6
20260508153053 60 82 0.0 2.0 0.00 0.04 0.00 62 1008.7
20260508151556 59 0 0.0 2.0 0.00 0.04 0.00 60 1008.8
20260508150051 58 0 0.0 2.0 0.00 0.04 0.00 60 1008.9
20260508144552 57 96 0.0 1.0 0.00 0.04 0.00 64 1009.0